Retour au catalogue

SPACEMOBILE-006

ActifCommunicationsVLEO
NORAD 67232·PAYLOAD·🇺🇸 United States

Lancé Dec 24, 2025 depuis Satish Dhawan Space Centre

Loading…

Prochains Passages (prochaines 24 heures)

TLE

FraisSource: CelesTrak SupGP

Époque: Sep 14, 2026, 09:43 UTC

1 67232C 25309A   26257.40523490  .00005690  00000+0  26836-3 0  2572
2 67232  52.9928 282.8704 0012016  51.8514 283.2860 15.18883205    13

Suivez SPACEMOBILE-006 en temps réel avec AllMySat

Download on the App Store